| time (UTC) | temp F | wind direction | speed MPH | gust MPH | rain 1hr in | rain 24hr in | rain mn in | humidity % | barometer mb |
| 20260904144120 | 76 | 282 | 2.0 | 6.0 | 0.00 | 0.06 | 0.01 | 68 | 1014.9 |
| 20260904143355 | 75 | 281 | 1.0 | 6.0 | 0.00 | 0.07 | 0.01 | 69 | 1015.2 |
| 20260904143045 | 75 | 256 | 1.0 | 6.0 | 0.00 | 0.08 | 0.01 | 69 | 1015.2 |
| 20260904142733 | 75 | 292 | 2.0 | 6.0 | 0.00 | 0.08 | 0.01 | 69 | 1015.1 |
| 20260904142422 | 75 | 163 | 2.0 | 6.0 | 0.00 | 0.09 | 0.01 | 69 | 1015.0 |
| 20260904142120 | 75 | 42 | 2.0 | 8.0 | 0.00 | 0.10 | 0.01 | 69 | 1014.9 |
| 20260904141824 | 75 | 184 | 2.0 | 8.0 | 0.00 | 0.10 | 0.01 | 70 | 1015.0 |
| 20260904141522 | 75 | 287 | 1.0 | 8.0 | 0.00 | 0.11 | 0.01 | 70 | 1014.8 |
| 20260904141215 | 75 | 24 | 1.0 | 8.0 | 0.00 | 0.11 | 0.01 | 70 | 1014.9 |
| 20260904140902 | 74 | 330 | 2.0 | 8.0 | 0.00 | 0.12 | 0.01 | 70 | 1014.8 |
| 20260904140550 | 74 | 240 | 2.0 | 8.0 | 0.00 | 0.12 | 0.01 | 70 | 1014.9 |
| 20260904140244 | 74 | 266 | 2.0 | 8.0 | 0.00 | 0.12 | 0.01 | 70 | 1014.9 |
| 20260904135933 | 74 | 307 | 2.0 | 6.0 | 0.00 | 0.12 | 0.01 | 71 | 1014.9 |
| 20260904135626 | 74 | 327 | 1.0 | 6.0 | 0.00 | 0.12 | 0.01 | 71 | 1014.9 |
| 20260904135313 | 74 | 271 | 2.0 | 6.0 | 0.00 | 0.12 | 0.01 | 71 | 1014.8 |
| 20260904135003 | 74 | 18 | 1.0 | 8.0 | 0.00 | 0.12 | 0.01 | 71 | 1014.8 |
| 20260904134655 | 73 | 340 | 1.0 | 8.0 | 0.00 | 0.12 | 0.01 | 71 | 1014.8 |
| 20260904134345 | 73 | 57 | 2.0 | 8.0 | 0.00 | 0.12 | 0.01 | 72 | 1014.9 |
| 20260904133604 | 73 | 36 | 2.0 | 8.0 | 0.00 | 0.12 | 0.01 | 72 | 1015.1 |
| 20260904132839 | 72 | 325 | 1.0 | 6.0 | 0.00 | 0.12 | 0.01 | 73 | 1015.0 |
| 20260904132532 | 72 | 292 | 2.0 | 6.0 | 0.00 | 0.12 | 0.01 | 73 | 1015.0 |
| 20260904132228 | 72 | 13 | 2.0 | 6.0 | 0.00 | 0.12 | 0.01 | 73 | 1014.9 |
| 20260904131928 | 72 | 342 | 2.0 | 6.0 | 0.00 | 0.12 | 0.01 | 74 | 1015.0 |
| 20260904131624 | 72 | 276 | 2.0 | 6.0 | 0.00 | 0.12 | 0.01 | 74 | 1014.8 |
| 20260904131324 | 72 | 306 | 2.0 | 5.0 | 0.00 | 0.12 | 0.01 | 74 | 1014.9 |
| 20260904131022 | 71 | 5 | 2.0 | 5.0 | 0.00 | 0.12 | 0.01 | 74 | 1014.9 |
| 20260904130718 | 71 | 280 | 2.0 | 5.0 | 0.00 | 0.12 | 0.01 | 74 | 1014.9 |
| 20260904130405 | 71 | 286 | 1.0 | 5.0 | 0.00 | 0.12 | 0.01 | 74 | 1014.9 |
| 20260904130055 | 71 | 336 | 1.0 | 8.0 | 0.00 | 0.12 | 0.01 | 75 | 1015.0 |
| 20260904125338 | 71 | 320 | 2.0 | 8.0 | 0.00 | 0.12 | 0.01 | 76 | 1015.0 |
| 20260904125037 | 71 | 296 | 2.0 | 8.0 | 0.00 | 0.12 | 0.01 | 76 | 1015.2 |
| 20260904124728 | 70 | 278 | 2.0 | 8.0 | 0.00 | 0.12 | 0.01 | 76 | 1015.1 |
| 20260904124427 | 70 | 317 | 2.0 | 8.0 | 0.00 | 0.12 | 0.01 | 76 | 1015.1 |
| 20260904124129 | 70 | 275 | 1.0 | 7.0 | 0.00 | 0.12 | 0.01 | 77 | 1015.2 |
| 20260904123821 | 70 | 355 | 1.0 | 5.0 | 0.00 | 0.12 | 0.01 | 77 | 1015.2 |
| 20260904122649 | 70 | 271 | 1.0 | 5.0 | 0.00 | 0.12 | 0.01 | 77 | 1015.5 |
| 20260904122339 | 70 | 284 | 0.0 | 5.0 | 0.00 | 0.12 | 0.01 | 77 | 1015.3 |
| 20260904122031 | 70 | 284 | 0.0 | 2.0 | 0.00 | 0.12 | 0.01 | 77 | 1015.2 |
| 20260904121253 | 69 | 294 | 0.0 | 3.0 | 0.00 | 0.12 | 0.01 | 77 | 1015.0 |
| 20260904120531 | 69 | 192 | 0.0 | 1.0 | 0.00 | 0.12 | 0.01 | 77 | 1015.3 |
| 20260904120223 | 69 | 243 | 0.0 | 0.0 | 0.00 | 0.12 | 0.01 | 77 | 1015.3 |
| 20260904115909 | 69 | 243 | 0.0 | 0.0 | 0.00 | 0.12 | 0.01 | 77 | 1015.3 |
| 20260904115556 | 69 | 243 | 0.0 | 5.0 | 0.00 | 0.12 | 0.01 | 77 | 1015.3 |
| 20260904115248 | 69 | 172 | 0.0 | 4.0 | 0.00 | 0.12 | 0.01 | 77 | 1015.2 |
| 20260904114524 | 68 | 236 | 0.0 | 2.0 | 0.00 | 0.12 | 0.01 | 77 | 1015.4 |
| 20260904114223 | 68 | 185 | 0.0 | 2.0 | 0.00 | 0.12 | 0.01 | 77 | 1015.4 |
| 20260904113924 | 68 | 205 | 0.0 | 2.0 | 0.00 | 0.12 | 0.01 | 77 | 1015.4 |
| 20260904113611 | 68 | 188 | 0.0 | 2.0 | 0.00 | 0.12 | 0.01 | 77 | 1015.5 |
| 20260904113301 | 68 | 188 | 0.0 | 2.0 | 0.00 | 0.12 | 0.01 | 77 | 1015.5 |
| 20260904112953 | 67 | 306 | 0.0 | 2.0 | 0.00 | 0.12 | 0.01 | 77 | 1015.5 |
| 20260904112641 | 67 | 182 | 0.0 | 2.0 | 0.00 | 0.12 | 0.01 | 76 | 1015.3 |
| 20260904112327 | 67 | 205 | 0.0 | 0.0 | 0.00 | 0.12 | 0.01 | 76 | 1015.3 |
| 20260904112015 | 67 | 205 | 0.0 | 0.0 | 0.00 | 0.12 | 0.01 | 76 | 1015.2 |
| 20260904111709 | 67 | 205 | 0.0 | 0.0 | 0.00 | 0.12 | 0.01 | 76 | 1015.1 |
| 20260904111411 | 67 | 205 | 0.0 | 0.0 | 0.00 | 0.12 | 0.01 | 76 | 1015.2 |
| 20260904111115 | 67 | 205 | 0.0 | 0.0 | 0.00 | 0.12 | 0.01 | 76 | 1015.0 |
| 20260904110333 | 67 | 149 | 0.0 | 0.0 | 0.00 | 0.12 | 0.01 | 75 | 1015.1 |
| 20260904110036 | 67 | 149 | 0.0 | 0.0 | 0.00 | 0.12 | 0.01 | 75 | 1014.9 |
| 20260904105730 | 67 | 71 | 0.0 | 0.0 | 0.00 | 0.13 | 0.01 | 75 | 1014.8 |
| 20260904105420 | 67 | 71 | 0.0 | 0.0 | 0.00 | 0.13 | 0.01 | 75 | 1014.8 |
| 20260904104659 | 67 | 132 | 0.0 | 0.0 | 0.00 | 0.15 | 0.01 | 75 | 1014.6 |
| 20260904104357 | 68 | 149 | 0.0 | 0.0 | 0.00 | 0.16 | 0.01 | 75 | 1014.5 |
| 20260904104050 | 68 | 149 | 0.0 | 0.0 | 0.00 | 0.16 | 0.01 | 75 | 1014.4 |
| 20260904103741 | 68 | 148 | 0.0 | 0.0 | 0.00 | 0.16 | 0.01 | 75 | 1014.5 |
| 20260904103437 | 67 | 94 | 0.0 | 0.0 | 0.00 | 0.17 | 0.01 | 75 | 1014.5 |
| 20260904103138 | 68 | 81 | 0.0 | 0.0 | 0.00 | 0.17 | 0.01 | 75 | 1014.6 |
| 20260904102841 | 68 | 177 | 0.0 | 0.0 | 0.00 | 0.17 | 0.01 | 75 | 1014.4 |
| 20260904102529 | 68 | 177 | 0.0 | 0.0 | 0.00 | 0.17 | 0.01 | 75 | 1014.4 |
| 20260904102229 | 68 | 177 | 0.0 | 0.0 | 0.00 | 0.17 | 0.01 | 75 | 1014.4 |
| 20260904101930 | 68 | 177 | 0.0 | 0.0 | 0.00 | 0.17 | 0.01 | 75 | 1014.3 |
| 20260904101623 | 68 | 177 | 0.0 | 0.0 | 0.00 | 0.17 | 0.01 | 75 | 1014.3 |
| 20260904101312 | 68 | 177 | 0.0 | 0.0 | 0.00 | 0.17 | 0.01 | 75 | 1014.3 |
| 20260904101013 | 68 | 177 | 0.0 | 0.0 | 0.00 | 0.17 | 0.01 | 75 | 1014.3 |
| 20260904100710 | 68 | 177 | 0.0 | 0.0 | 0.00 | 0.18 | 0.01 | 75 | 1014.2 |
| 20260904100409 | 68 | 177 | 0.0 | 0.0 | 0.00 | 0.18 | 0.01 | 75 | 1014.3 |
| 20260904100101 | 68 | 177 | 0.0 | 0.0 | 0.00 | 0.18 | 0.01 | 75 | 1014.3 |
| 20260904095754 | 68 | 177 | 0.0 | 0.0 | 0.00 | 0.18 | 0.01 | 75 | 1014.2 |
| 20260904095038 | 68 | 177 | 0.0 | 0.0 | 0.00 | 0.18 | 0.01 | 75 | 1014.4 |
| 20260904094731 | 68 | 177 | 0.0 | 0.0 | 0.00 | 0.19 | 0.01 | 75 | 1014.3 |
| 20260904094433 | 68 | 177 | 0.0 | 0.0 | 0.00 | 0.20 | 0.01 | 75 | 1014.3 |
| 20260904094124 | 68 | 177 | 0.0 | 1.0 | 0.00 | 0.20 | 0.01 | 75 | 1014.3 |
| 20260904093816 | 68 | 205 | 0.0 | 0.0 | 0.00 | 0.20 | 0.01 | 75 | 1014.2 |
| 20260904093517 | 68 | 205 | 0.0 | 0.0 | 0.00 | 0.21 | 0.01 | 75 | 1014.3 |
| 20260904093214 | 68 | 205 | 0.0 | 0.0 | 0.00 | 0.22 | 0.01 | 75 | 1014.3 |
| 20260904092913 | 68 | 205 | 0.0 | 0.0 | 0.00 | 0.22 | 0.01 | 75 | 1014.3 |
| 20260904092609 | 68 | 205 | 0.0 | 0.0 | 0.00 | 0.22 | 0.01 | 75 | 1014.4 |
| 20260904092256 | 68 | 265 | 0.0 | 0.0 | 0.00 | 0.22 | 0.01 | 75 | 1014.5 |
| 20260904091959 | 68 | 265 | 0.0 | 0.0 | 0.00 | 0.22 | 0.01 | 75 | 1014.4 |
| 20260904091651 | 68 | 265 | 0.0 | 0.0 | 0.00 | 0.22 | 0.01 | 75 | 1014.4 |
| 20260904091349 | 68 | 265 | 0.0 | 0.0 | 0.00 | 0.22 | 0.01 | 75 | 1014.4 |
| 20260904091048 | 68 | 265 | 0.0 | 0.0 | 0.00 | 0.22 | 0.01 | 75 | 1014.4 |
| 20260904090736 | 68 | 265 | 0.0 | 0.0 | 0.00 | 0.23 | 0.01 | 75 | 1014.3 |
| 20260904090430 | 68 | 265 | 0.0 | 0.0 | 0.00 | 0.24 | 0.01 | 75 | 1014.4 |
| 20260904090128 | 68 | 265 | 0.0 | 0.0 | 0.00 | 0.31 | 0.01 | 75 | 1014.2 |
| 20260904085821 | 68 | 319 | 0.0 | 0.0 | 0.00 | 0.34 | 0.01 | 75 | 1014.3 |
| 20260904085516 | 68 | 319 | 0.0 | 0.0 | 0.00 | 0.34 | 0.01 | 75 | 1014.4 |
| 20260904085210 | 68 | 319 | 0.0 | 0.0 | 0.00 | 0.34 | 0.01 | 75 | 1014.3 |
| 20260904084911 | 68 | 319 | 0.0 | 0.0 | 0.00 | 0.34 | 0.01 | 75 | 1014.4 |
| 20260904083717 | 68 | 267 | 0.0 | 0.0 | 0.00 | 0.34 | 0.01 | 74 | 1014.4 |
| 20260904083407 | 68 | 267 | 0.0 | 0.0 | 0.00 | 0.34 | 0.01 | 74 | 1014.4 |
| 20260904083104 | 68 | 267 | 0.0 | 0.0 | 0.00 | 0.35 | 0.01 | 74 | 1014.4 |
| 20260904082804 | 68 | 267 | 0.0 | 0.0 | 0.00 | 0.35 | 0.01 | 74 | 1014.4 |
| 20260904082500 | 68 | 267 | 0.0 | 0.0 | 0.00 | 0.35 | 0.01 | 74 | 1014.4 |
| 20260904082201 | 68 | 267 | 0.0 | 0.0 | 0.00 | 0.35 | 0.01 | 74 | 1014.3 |
| 20260904081850 | 68 | 267 | 0.0 | 0.0 | 0.00 | 0.35 | 0.01 | 74 | 1014.3 |
| 20260904081537 | 68 | 267 | 0.0 | 0.0 | 0.00 | 0.35 | 0.01 | 74 | 1014.2 |
| 20260904080819 | 68 | 267 | 0.0 | 0.0 | 0.00 | 0.35 | 0.01 | 74 | 1014.2 |
| 20260904080058 | 68 | 267 | 0.0 | 0.0 | 0.00 | 0.35 | 0.01 | 73 | 1014.3 |
| 20260904075325 | 68 | 267 | 0.0 | 0.0 | 0.00 | 0.35 | 0.01 | 73 | 1014.1 |
| 20260904075012 | 68 | 267 | 0.0 | 1.0 | 0.00 | 0.35 | 0.01 | 73 | 1014.1 |
| 20260904074710 | 68 | 252 | 0.0 | 0.0 | 0.00 | 0.36 | 0.01 | 73 | 1014.1 |
| 20260904074407 | 68 | 104 | 0.0 | 0.0 | 0.00 | 0.36 | 0.01 | 73 | 1013.9 |
| 20260904074108 | 68 | 104 | 0.0 | 0.0 | 0.00 | 0.37 | 0.01 | 73 | 1013.9 |
| 20260904073759 | 68 | 104 | 0.0 | 0.0 | 0.00 | 0.37 | 0.01 | 73 | 1014.0 |
| 20260904073455 | 68 | 104 | 0.0 | 0.0 | 0.00 | 0.37 | 0.01 | 73 | 1013.9 |
| 20260904073153 | 68 | 104 | 0.0 | 0.0 | 0.00 | 0.37 | 0.01 | 73 | 1014.0 |
| 20260904072853 | 68 | 104 | 0.0 | 0.0 | 0.00 | 0.37 | 0.01 | 73 | 1014.0 |
| 20260904072557 | 68 | 106 | 0.0 | 0.0 | 0.00 | 0.37 | 0.01 | 73 | 1014.0 |
| 20260904072259 | 69 | 142 | 0.0 | 0.0 | 0.00 | 0.37 | 0.01 | 73 | 1013.8 |
| 20260904071957 | 69 | 160 | 0.0 | 0.0 | 0.00 | 0.37 | 0.01 | 73 | 1013.6 |
| 20260904071645 | 69 | 188 | 0.0 | 0.0 | 0.00 | 0.37 | 0.01 | 73 | 1013.8 |
| 20260904071339 | 69 | 262 | 0.0 | 0.0 | 0.00 | 0.37 | 0.01 | 73 | 1013.7 |
| 20260904071034 | 69 | 266 | 0.0 | 0.0 | 0.00 | 0.37 | 0.01 | 73 | 1013.6 |
| 20260904070722 | 69 | 261 | 0.0 | 2.0 | 0.00 | 0.37 | 0.01 | 73 | 1013.7 |
| 20260904070409 | 69 | 241 | 0.0 | 2.0 | 0.00 | 0.37 | 0.01 | 72 | 1013.6 |
| 20260904070104 | 69 | 232 | 0.0 | 2.0 | 0.00 | 0.37 | 0.01 | 73 | 1013.4 |
| 20260904065755 | 69 | 261 | 0.0 | 2.0 | 0.00 | 0.37 | 0.01 | 72 | 1013.5 |
| 20260904065445 | 69 | 270 | 0.0 | 3.0 | 0.00 | 0.37 | 0.01 | 72 | 1013.4 |
| 20260904065134 | 69 | 5 | 0.0 | 3.0 | 0.00 | 0.37 | 0.01 | 72 | 1013.4 |
| 20260904064827 | 69 | 242 | 0.0 | 6.0 | 0.00 | 0.37 | 0.01 | 72 | 1013.3 |
| 20260904064530 | 69 | 297 | 0.0 | 6.0 | 0.00 | 0.37 | 0.01 | 72 | 1013.2 |
| 20260904064220 | 69 | 97 | 1.0 | 6.0 | 0.00 | 0.37 | 0.01 | 72 | 1013.2 |
| 20260904063908 | 69 | 276 | 1.0 | 8.0 | 0.00 | 0.37 | 0.01 | 72 | 1013.1 |
| 20260904063611 | 69 | 311 | 1.0 | 8.0 | 0.00 | 0.37 | 0.01 | 72 | 1013.1 |
| 20260904062842 | 69 | 262 | 2.0 | 8.0 | 0.00 | 0.37 | 0.01 | 72 | 1012.9 |
| 20260904062117 | 69 | 309 | 1.0 | 7.0 | 0.00 | 0.37 | 0.01 | 72 | 1012.7 |
| 20260904061820 | 69 | 218 | 1.0 | 7.0 | 0.00 | 0.37 | 0.01 | 72 | 1012.7 |
| 20260904061525 | 69 | 287 | 1.0 | 9.0 | 0.00 | 0.37 | 0.01 | 72 | 1012.6 |
| 20260904060805 | 69 | 211 | 2.0 | 9.0 | 0.00 | 0.37 | 0.01 | 72 | 1012.6 |
| 20260904060452 | 69 | 314 | 2.0 | 9.0 | 0.00 | 0.37 | 0.01 | 72 | 1012.5 |
| 20260904060150 | 69 | 312 | 2.0 | 9.0 | 0.00 | 0.37 | 0.01 | 72 | 1012.6 |
| 20260904055847 | 69 | 273 | 1.0 | 9.0 | 0.00 | 0.37 | 0.01 | 72 | 1012.7 |
| 20260904055540 | 69 | 162 | 1.0 | 5.0 | 0.00 | 0.37 | 0.01 | 72 | 1012.7 |
| 20260904054818 | 69 | 325 | 1.0 | 4.0 | 0.00 | 0.37 | 0.01 | 71 | 1012.7 |
| 20260904054513 | 69 | 269 | 1.0 | 5.0 | 0.00 | 0.37 | 0.01 | 72 | 1012.8 |
| 20260904054206 | 69 | 307 | 1.0 | 5.0 | 0.00 | 0.37 | 0.01 | 72 | 1012.7 |
| 20260904053908 | 70 | 315 | 1.0 | 5.0 | 0.00 | 0.37 | 0.01 | 72 | 1012.8 |
| 20260904053600 | 70 | 282 | 1.0 | 5.0 | 0.00 | 0.37 | 0.01 | 71 | 1012.8 |
| 20260904053255 | 70 | 289 | 1.0 | 5.0 | 0.00 | 0.37 | 0.01 | 71 | 1012.9 |
| 20260904052944 | 70 | 296 | 1.0 | 5.0 | 0.00 | 0.37 | 0.01 | 71 | 1012.9 |
| 20260904052632 | 70 | 279 | 1.0 | 4.0 | 0.00 | 0.37 | 0.01 | 71 | 1013.0 |
| 20260904052320 | 70 | 299 | 1.0 | 4.0 | 0.00 | 0.37 | 0.01 | 71 | 1013.0 |
| 20260904051148 | 70 | 313 | 0.0 | 3.0 | 0.00 | 0.37 | 0.01 | 71 | 1013.0 |
| 20260904050848 | 70 | 276 | 0.0 | 3.0 | 0.00 | 0.37 | 0.01 | 71 | 1013.1 |
| 20260904050539 | 70 | 288 | 0.0 | 3.0 | 0.00 | 0.37 | 0.01 | 71 | 1013.1 |
| 20260904050230 | 70 | 314 | 0.0 | 3.0 | 0.00 | 0.37 | 0.01 | 71 | 1013.3 |
| 20260904045928 | 70 | 317 | 0.0 | 3.0 | 0.00 | 0.37 | 0.01 | 71 | 1013.2 |
| 20260904045202 | 70 | 346 | 0.0 | 3.0 | 0.00 | 0.37 | 0.01 | 71 | 1013.2 |
| 20260904044859 | 70 | 249 | 0.0 | 1.0 | 0.00 | 0.37 | 0.01 | 71 | 1013.1 |
| 20260904044547 | 70 | 301 | 0.0 | 5.0 | 0.00 | 0.37 | 0.01 | 71 | 1013.1 |
| 20260904044236 | 70 | 234 | 0.0 | 5.0 | 0.00 | 0.37 | 0.01 | 71 | 1013.2 |
| 20260904043925 | 70 | 292 | 1.0 | 5.0 | 0.00 | 0.37 | 0.01 | 71 | 1013.3 |
| 20260904043200 | 71 | 188 | 1.0 | 5.0 | 0.00 | 0.37 | 0.01 | 71 | 1013.2 |
| 20260904042852 | 71 | 206 | 0.0 | 5.0 | 0.00 | 0.37 | 0.01 | 71 | 1013.3 |
| 20260904042137 | 71 | 194 | 0.0 | 4.0 | 0.00 | 0.37 | 0.01 | 71 | 1013.4 |
| 20260904041408 | 71 | 276 | 0.0 | 4.0 | 0.00 | 0.37 | 0.01 | 70 | 1013.8 |
| 20260904040630 | 71 | 341 | 0.0 | 4.0 | 0.00 | 0.36 | 0.01 | 70 | 1013.8 |
| 20260904040320 | 71 | 194 | 0.0 | 4.0 | 0.00 | 0.36 | 0.00 | 70 | 1013.8 |
| 20260904040021 | 71 | 266 | 1.0 | 4.0 | 0.00 | 0.36 | 0.00 | 70 | 1013.9 |
| 20260904035718 | 71 | 273 | 0.0 | 4.0 | 0.00 | 0.36 | 0.37 | 70 | 1013.9 |
| 20260904034942 | 72 | 228 | 1.0 | 4.0 | 0.00 | 0.36 | 0.37 | 70 | 1014.1 |
| 20260904034637 | 72 | 239 | 1.0 | 4.0 | 0.00 | 0.36 | 0.37 | 70 | 1014.2 |
| 20260904033924 | 72 | 176 | 1.0 | 6.0 | 0.04 | 0.36 | 0.37 | 70 | 1014.5 |
| 20260904033614 | 72 | 318 | 1.0 | 6.0 | 0.04 | 0.36 | 0.37 | 70 | 1014.6 |
| 20260904033315 | 72 | 192 | 1.0 | 10.0 | 0.04 | 0.36 | 0.37 | 70 | 1014.6 |
| 20260904033012 | 73 | 209 | 1.0 | 10.0 | 0.04 | 0.36 | 0.37 | 70 | 1014.7 |
| 20260904032715 | 73 | 189 | 1.0 | 10.0 | 0.00 | 0.36 | 0.36 | 69 | 1014.9 |
| 20260904032417 | 73 | 202 | 2.0 | 10.0 | 0.00 | 0.36 | 0.36 | 69 | 1014.9 |
| 20260904032114 | 73 | 209 | 2.0 | 10.0 | 0.00 | 0.36 | 0.36 | 69 | 1015.2 |
| 20260904031810 | 73 | 246 | 2.0 | 10.0 | 0.00 | 0.36 | 0.36 | 69 | 1015.2 |
| 20260904031053 | 74 | 268 | 2.0 | 7.0 | 0.00 | 0.35 | 0.35 | 69 | 1015.3 |
| 20260904030756 | 75 | 239 | 2.0 | 7.0 | 0.00 | 0.35 | 0.35 | 69 | 1015.5 |
| 20260904030452 | 75 | 218 | 2.0 | 7.0 | 0.00 | 0.35 | 0.35 | 69 | 1015.5 |
| 20260904030144 | 75 | 248 | 1.0 | 7.0 | 0.00 | 0.35 | 0.35 | 70 | 1015.6 |
| 20260904025847 | 76 | 249 | 1.0 | 7.0 | 0.00 | 0.35 | 0.35 | 70 | 1015.5 |
| 20260904025544 | 76 | 180 | 1.0 | 7.0 | 0.00 | 0.35 | 0.35 | 70 | 1015.6 |
| 20260904025235 | 76 | 311 | 1.0 | 7.0 | 0.00 | 0.35 | 0.35 | 70 | 1015.4 |
| 20260904024057 | 77 | 162 | 1.0 | 3.0 | 0.00 | 0.35 | 0.35 | 70 | 1015.3 |
| 20260904023748 | 78 | 255 | 1.0 | 3.0 | 0.00 | 0.35 | 0.35 | 70 | 1015.4 |
| 20260904023024 | 78 | 156 | 0.0 | 3.0 | 0.00 | 0.35 | 0.35 | 70 | 1015.4 |
| 20260904022722 | 78 | 200 | 0.0 | 2.0 | 0.00 | 0.35 | 0.35 | 70 | 1015.3 |
| 20260904022419 | 78 | 246 | 0.0 | 2.0 | 0.00 | 0.35 | 0.35 | 70 | 1015.3 |
| 20260904021658 | 78 | 240 | 0.0 | 2.0 | 0.00 | 0.35 | 0.35 | 70 | 1014.8 |
| 20260904021348 | 78 | 281 | 0.0 | 2.0 | 0.04 | 0.35 | 0.35 | 70 | 1014.6 |
| 20260904021038 | 78 | 355 | 0.0 | 0.0 | 0.04 | 0.35 | 0.35 | 70 | 1014.3 |
| 20260904020728 | 78 | 30 | 0.0 | 0.0 | 0.06 | 0.35 | 0.35 | 70 | 1014.1 |
| 20260904020428 | 78 | 30 | 0.0 | 0.0 | 0.06 | 0.35 | 0.35 | 70 | 1014.1 |
| 20260904020115 | 78 | 189 | 0.0 | 0.0 | 0.06 | 0.35 | 0.35 | 69 | 1014.0 |
| 20260904015806 | 79 | 190 | 0.0 | 0.0 | 0.06 | 0.33 | 0.35 | 70 | 1014.0 |
| 20260904015504 | 79 | 220 | 0.0 | 0.0 | 0.06 | 0.33 | 0.34 | 70 | 1014.2 |
| 20260904014732 | 79 | 224 | 0.0 | 0.0 | 0.06 | 0.32 | 0.34 | 69 | 1014.2 |
| 20260904014422 | 79 | 224 | 0.0 | 0.0 | 0.05 | 0.32 | 0.33 | 69 | 1014.2 |
| 20260904014113 | 79 | 224 | 0.0 | 0.0 | 0.05 | 0.32 | 0.33 | 69 | 1014.3 |
| 20260904013356 | 79 | 224 | 0.0 | 0.0 | 0.00 | 0.32 | 0.32 | 69 | 1014.3 |
| 20260904013046 | 79 | 224 | 0.0 | 0.0 | 0.00 | 0.32 | 0.32 | 69 | 1014.2 |
| 20260904012750 | 79 | 234 | 0.0 | 0.0 | 0.00 | 0.32 | 0.32 | 69 | 1014.2 |
| 20260904012439 | 79 | 239 | 0.0 | 0.0 | 0.00 | 0.32 | 0.32 | 69 | 1014.2 |
| 20260904012131 | 79 | 240 | 0.0 | 0.0 | 0.00 | 0.31 | 0.31 | 69 | 1014.2 |
| 20260904011828 | 79 | 239 | 0.0 | 0.0 | 0.00 | 0.31 | 0.31 | 69 | 1014.1 |
| 20260904010226 | 79 | 211 | 0.0 | 0.0 | 0.00 | 0.31 | 0.31 | 68 | 1013.9 |
| 20260904005449 | 79 | 211 | 0.0 | 0.0 | 0.00 | 0.31 | 0.31 | 68 | 1013.9 |
| 20260904004730 | 80 | 211 | 0.0 | 0.0 | 0.00 | 0.31 | 0.31 | 68 | 1014.0 |
| 20260904004426 | 80 | 211 | 0.0 | 0.0 | 0.00 | 0.31 | 0.31 | 68 | 1013.9 |
| 20260904004121 | 80 | 211 | 0.0 | 0.0 | 0.00 | 0.31 | 0.31 | 68 | 1013.9 |
| 20260904003811 | 80 | 211 | 0.0 | 1.0 | 0.00 | 0.31 | 0.31 | 68 | 1013.9 |
| 20260904003501 | 80 | 221 | 0.0 | 0.0 | 0.00 | 0.31 | 0.31 | 68 | 1014.0 |
| 20260904003200 | 80 | 221 | 0.0 | 0.0 | 0.00 | 0.31 | 0.31 | 68 | 1014.0 |
| 20260904002030 | 80 | 225 | 0.0 | 0.0 | 0.00 | 0.31 | 0.31 | 67 | 1014.0 |
| 20260904001721 | 80 | 225 | 0.0 | 0.0 | 0.00 | 0.31 | 0.31 | 67 | 1014.0 |
| 20260904001413 | 80 | 225 | 0.0 | 0.0 | 0.00 | 0.31 | 0.31 | 67 | 1014.1 |
| 20260904001108 | 81 | 225 | 0.0 | 0.0 | 0.00 | 0.31 | 0.31 | 67 | 1014.1 |
| 20260904000759 | 81 | 222 | 0.0 | 0.0 | 0.00 | 0.31 | 0.31 | 66 | 1014.1 |
| 20260903235612 | 81 | 226 | 0.0 | 0.0 | 0.00 | 0.31 | 0.31 | 66 | 1014.4 |
| 20260903235307 | 81 | 226 | 0.0 | 0.0 | 0.00 | 0.31 | 0.31 | 66 | 1014.4 |
| 20260903235000 | 81 | 229 | 0.0 | 0.0 | 0.00 | 0.31 | 0.31 | 66 | 1014.3 |
| 20260903234700 | 81 | 229 | 0.0 | 0.0 | 0.00 | 0.31 | 0.31 | 65 | 1014.3 |
| 20260903234403 | 81 | 223 | 0.0 | 0.0 | 0.00 | 0.31 | 0.31 | 65 | 1014.3 |
| 20260903234058 | 82 | 221 | 0.0 | 0.0 | 0.00 | 0.31 | 0.31 | 65 | 1014.2 |
| 20260903233801 | 82 | 228 | 0.0 | 1.0 | 0.00 | 0.31 | 0.31 | 65 | 1014.1 |
| 20260903233457 | 82 | 228 | 0.0 | 1.0 | 0.00 | 0.31 | 0.31 | 65 | 1013.9 |
| 20260903232723 | 82 | 228 | 0.0 | 0.0 | 0.00 | 0.31 | 0.31 | 65 | 1013.7 |
| 20260903232417 | 82 | 228 | 0.0 | 0.0 | 0.00 | 0.31 | 0.31 | 64 | 1013.5 |
| 20260903231705 | 83 | 228 | 0.0 | 0.0 | 0.00 | 0.31 | 0.31 | 64 | 1013.4 |
| 20260903231358 | 83 | 228 | 0.0 | 0.0 | 0.00 | 0.31 | 0.31 | 64 | 1013.3 |
| 20260903231045 | 83 | 228 | 0.0 | 0.0 | 0.00 | 0.31 | 0.31 | 64 | 1013.4 |
| 20260903230742 | 83 | 229 | 0.0 | 1.0 | 0.00 | 0.31 | 0.31 | 64 | 1013.5 |
| 20260903230438 | 83 | 221 | 0.0 | 0.0 | 0.00 | 0.31 | 0.31 | 63 | 1013.6 |
| 20260903230139 | 83 | 221 | 0.0 | 1.0 | 0.00 | 0.31 | 0.31 | 63 | 1013.7 |
| 20260903225826 | 83 | 224 | 0.0 | 0.0 | 0.00 | 0.31 | 0.31 | 63 | 1013.7 |
| 20260903225513 | 83 | 224 | 0.0 | 3.0 | 0.00 | 0.31 | 0.31 | 63 | 1013.6 |
| 20260903225216 | 83 | 294 | 0.0 | 3.0 | 0.00 | 0.31 | 0.31 | 63 | 1013.7 |
| 20260903224504 | 84 | 214 | 0.0 | 2.0 | 0.00 | 0.31 | 0.31 | 62 | 1013.6 |
| 20260903224202 | 84 | 239 | 0.0 | 2.0 | 0.00 | 0.31 | 0.31 | 62 | 1013.6 |
| 20260903223857 | 84 | 249 | 0.0 | 6.0 | 0.00 | 0.31 | 0.31 | 62 | 1013.5 |
| 20260903223557 | 84 | 182 | 1.0 | 6.0 | 0.00 | 0.31 | 0.31 | 62 | 1013.5 |
| 20260903222833 | 84 | 209 | 0.0 | 6.0 | 0.00 | 0.31 | 0.31 | 61 | 1013.5 |
| 20260903222534 | 84 | 238 | 0.0 | 6.0 | 0.00 | 0.31 | 0.31 | 62 | 1013.5 |
| 20260903222238 | 84 | 218 | 0.0 | 6.0 | 0.00 | 0.31 | 0.31 | 61 | 1013.3 |
| 20260903221936 | 84 | 211 | 0.0 | 3.0 | 0.00 | 0.31 | 0.31 | 61 | 1013.1 |
| 20260903221637 | 84 | 180 | 0.0 | 4.0 | 0.00 | 0.31 | 0.31 | 61 | 1013.1 |
| 20260903221324 | 85 | 298 | 0.0 | 4.0 | 0.00 | 0.31 | 0.31 | 61 | 1013.2 |
| 20260903220550 | 85 | 224 | 1.0 | 7.0 | 0.00 | 0.31 | 0.31 | 60 | 1013.2 |
| 20260903220236 | 85 | 287 | 1.0 | 7.0 | 0.00 | 0.31 | 0.31 | 60 | 1013.2 |
| 20260903215938 | 85 | 215 | 1.0 | 7.0 | 0.00 | 0.31 | 0.31 | 60 | 1013.1 |
| 20260903215628 | 85 | 178 | 1.0 | 7.0 | 0.00 | 0.31 | 0.31 | 59 | 1013.2 |
| 20260903214905 | 85 | 248 | 2.0 | 8.0 | 0.00 | 0.31 | 0.31 | 59 | 1013.2 |
| 20260903214555 | 85 | 277 | 2.0 | 8.0 | 0.00 | 0.31 | 0.31 | 59 | 1013.1 |
| 20260903213359 | 85 | 203 | 2.0 | 8.0 | 0.00 | 0.31 | 0.31 | 58 | 1013.2 |
| 20260903213101 | 85 | 259 | 2.0 | 8.0 | 0.00 | 0.31 | 0.31 | 59 | 1013.1 |
| 20260903212752 | 85 | 30 | 2.0 | 7.0 | 0.00 | 0.31 | 0.31 | 59 | 1013.1 |
| 20260903212454 | 85 | 252 | 2.0 | 7.0 | 0.00 | 0.31 | 0.31 | 58 | 1013.1 |
| 20260903212146 | 85 | 248 | 2.0 | 10.0 | 0.00 | 0.31 | 0.31 | 58 | 1013.1 |
| 20260903211846 | 85 | 272 | 2.0 | 10.0 | 0.00 | 0.31 | 0.31 | 59 | 1013.1 |
| 20260903211537 | 85 | 203 | 2.0 | 10.0 | 0.00 | 0.31 | 0.31 | 58 | 1012.9 |
| 20260903211232 | 85 | 227 | 2.0 | 10.0 | 0.00 | 0.31 | 0.31 | 58 | 1013.0 |
| 20260903210923 | 85 | 272 | 2.0 | 10.0 | 0.00 | 0.31 | 0.31 | 58 | 1013.0 |
| 20260903210624 | 85 | 312 | 2.0 | 10.0 | 0.00 | 0.31 | 0.31 | 57 | 1013.0 |
| 20260903210325 | 85 | 221 | 2.0 | 10.0 | 0.00 | 0.31 | 0.31 | 58 | 1012.9 |
| 20260903210018 | 85 | 188 | 2.0 | 10.0 | 0.00 | 0.31 | 0.31 | 59 | 1013.0 |
| 20260903205715 | 85 | 246 | 3.0 | 10.0 | 0.00 | 0.31 | 0.31 | 59 | 1013.0 |
| 20260903205414 | 85 | 247 | 3.0 | 10.0 | 0.00 | 0.31 | 0.31 | 59 | 1013.0 |
| 20260903205116 | 85 | 244 | 3.0 | 10.0 | 0.00 | 0.31 | 0.31 | 58 | 1013.1 |
| 20260903204808 | 85 | 259 | 3.0 | 10.0 | 0.00 | 0.31 | 0.31 | 58 | 1013.1 |
| 20260903204455 | 85 | 195 | 3.0 | 8.0 | 0.00 | 0.31 | 0.31 | 58 | 1013.3 |
| 20260903204149 | 85 | 344 | 3.0 | 8.0 | 0.00 | 0.31 | 0.31 | 58 | 1013.3 |
| 20260903203853 | 85 | 205 | 2.0 | 8.0 | 0.00 | 0.31 | 0.31 | 59 | 1013.3 |
| 20260903203552 | 85 | 187 | 2.0 | 8.0 | 0.00 | 0.31 | 0.31 | 58 | 1013.3 |
| 20260903203255 | 85 | 275 | 2.0 | 9.0 | 0.00 | 0.31 | 0.31 | 58 | 1013.4 |
| 20260903202943 | 85 | 183 | 3.0 | 9.0 | 0.00 | 0.31 | 0.31 | 59 | 1013.5 |
| 20260903202647 | 85 | 269 | 3.0 | 9.0 | 0.00 | 0.31 | 0.31 | 58 | 1013.5 |
| 20260903202344 | 86 | 288 | 2.0 | 9.0 | 0.00 | 0.31 | 0.31 | 58 | 1013.5 |
| 20260903202049 | 86 | 228 | 2.0 | 9.0 | 0.00 | 0.31 | 0.31 | 57 | 1013.5 |
| 20260903201736 | 86 | 345 | 2.0 | 9.0 | 0.00 | 0.31 | 0.31 | 58 | 1013.6 |
| 20260903201008 | 86 | 275 | 3.0 | 9.0 | 0.00 | 0.31 | 0.31 | 58 | 1013.6 |
| 20260903200656 | 86 | 216 | 3.0 | 9.0 | 0.00 | 0.31 | 0.31 | 58 | 1013.6 |
| 20260903195504 | 86 | 313 | 3.0 | 11.0 | 0.00 | 0.31 | 0.31 | 58 | 1013.6 |
| 20260903195158 | 86 | 179 | 3.0 | 11.0 | 0.00 | 0.31 | 0.31 | 58 | 1013.6 |
| 20260903194848 | 86 | 269 | 2.0 | 11.0 | 0.00 | 0.31 | 0.31 | 57 | 1013.8 |
| 20260903194125 | 86 | 202 | 2.0 | 8.0 | 0.00 | 0.31 | 0.31 | 59 | 1013.8 |
| 20260903193819 | 86 | 261 | 3.0 | 8.0 | 0.00 | 0.31 | 0.31 | 58 | 1013.8 |
| 20260903193052 | 86 | 275 | 3.0 | 10.0 | 0.00 | 0.31 | 0.31 | 58 | 1013.8 |
| 20260903192321 | 86 | 248 | 3.0 | 10.0 | 0.00 | 0.31 | 0.31 | 57 | 1013.9 |
| 20260903192020 | 86 | 221 | 3.0 | 10.0 | 0.00 | 0.31 | 0.31 | 58 | 1014.1 |
| 20260903191721 | 86 | 215 | 3.0 | 10.0 | 0.00 | 0.31 | 0.31 | 60 | 1014.1 |
| 20260903191415 | 86 | 102 | 3.0 | 9.0 | 0.00 | 0.31 | 0.31 | 59 | 1014.1 |
| 20260903191107 | 86 | 50 | 3.0 | 9.0 | 0.00 | 0.31 | 0.31 | 58 | 1014.3 |
| 20260903190811 | 86 | 275 | 3.0 | 9.0 | 0.00 | 0.31 | 0.31 | 57 | 1014.3 |
| 20260903190505 | 86 | 248 | 3.0 | 9.0 | 0.00 | 0.31 | 0.31 | 56 | 1014.3 |
| 20260903190154 | 86 | 272 | 2.0 | 8.0 | 0.00 | 0.31 | 0.31 | 57 | 1014.3 |
| 20260903185429 | 86 | 325 | 2.0 | 7.0 | 0.00 | 0.31 | 0.31 | 58 | 1014.4 |
| 20260903184658 | 86 | 280 | 2.0 | 9.0 | 0.00 | 0.31 | 0.31 | 58 | 1014.6 |
| 20260903184346 | 86 | 209 | 2.0 | 10.0 | 0.00 | 0.31 | 0.31 | 57 | 1014.7 |
| 20260903183624 | 85 | 350 | 2.0 | 10.0 | 0.00 | 0.31 | 0.31 | 57 | 1014.8 |
| 20260903180908 | 84 | 200 | 4.0 | 10.0 | 0.00 | 0.32 | 0.31 | 60 | 1015.3 |
| 20260903180608 | 84 | 200 | 4.0 | 10.0 | 0.00 | 0.32 | 0.31 | 60 | 1015.3 |
| 20260903180302 | 84 | 200 | 4.0 | 10.0 | 0.00 | 0.32 | 0.31 | 60 | 1015.3 |
| 20260903175957 | 84 | 200 | 4.0 | 10.0 | 0.00 | 0.32 | 0.31 | 60 | 1015.3 |
| 20260903175659 | 84 | 252 | 4.0 | 10.0 | 0.00 | 0.32 | 0.31 | 59 | 1015.4 |
| 20260903175402 | 84 | 132 | 4.0 | 10.0 | 0.00 | 0.32 | 0.31 | 60 | 1015.4 |
| 20260903175052 | 84 | 284 | 3.0 | 10.0 | 0.00 | 0.32 | 0.31 | 60 | 1015.4 |
| 20260903174751 | 84 | 292 | 3.0 | 9.0 | 0.00 | 0.32 | 0.31 | 59 | 1015.5 |
| 20260903174441 | 84 | 193 | 3.0 | 9.0 | 0.00 | 0.32 | 0.31 | 59 | 1015.6 |
| 20260903174136 | 84 | 0 | 3.0 | 11.0 | 0.00 | 0.32 | 0.31 | 60 | 1015.6 |
| 20260903172947 | 83 | 215 | 3.0 | 11.0 | 0.00 | 0.32 | 0.31 | 60 | 1015.7 |
| 20260903172633 | 83 | 226 | 3.0 | 11.0 | 0.00 | 0.33 | 0.31 | 61 | 1015.7 |
| 20260903172323 | 83 | 182 | 2.0 | 9.0 | 0.00 | 0.33 | 0.31 | 64 | 1015.8 |
| 20260903171600 | 82 | 316 | 3.0 | 9.0 | 0.00 | 0.34 | 0.31 | 66 | 1015.7 |
| 20260903171302 | 81 | 203 | 3.0 | 8.0 | 0.00 | 0.34 | 0.31 | 66 | 1015.8 |
| 20260903170547 | 80 | 324 | 2.0 | 11.0 | 0.00 | 0.34 | 0.31 | 67 | 1015.8 |
| 20260903170234 | 80 | 145 | 2.0 | 11.0 | 0.00 | 0.35 | 0.31 | 69 | 1015.8 |
| 20260903165516 | 79 | 267 | 3.0 | 11.0 | 0.00 | 0.35 | 0.31 | 71 | 1015.9 |
| 20260903165216 | 79 | 70 | 3.0 | 11.0 | 0.00 | 0.36 | 0.31 | 71 | 1015.9 |
| 20260903164911 | 78 | 321 | 3.0 | 11.0 | 0.00 | 0.36 | 0.31 | 72 | 1016.0 |
| 20260903164607 | 78 | 9 | 3.0 | 11.0 | 0.00 | 0.36 | 0.31 | 72 | 1016.1 |
| 20260903164308 | 77 | 324 | 3.0 | 11.0 | 0.00 | 0.37 | 0.31 | 73 | 1016.2 |
| 20260903164002 | 77 | 289 | 3.0 | 11.0 | 0.00 | 0.37 | 0.31 | 73 | 1016.3 |
| 20260903163658 | 77 | 218 | 3.0 | 11.0 | 0.00 | 0.38 | 0.31 | 74 | 1016.4 |
| 20260903163359 | 76 | 206 | 3.0 | 11.0 | 0.00 | 0.38 | 0.31 | 75 | 1016.3 |
| 20260903163046 | 76 | 232 | 3.0 | 11.0 | 0.00 | 0.39 | 0.31 | 74 | 1016.3 |
| 20260903162737 | 75 | 175 | 3.0 | 11.0 | 0.00 | 0.39 | 0.31 | 74 | 1016.5 |
| 20260903162426 | 75 | 259 | 3.0 | 12.0 | 0.00 | 0.40 | 0.31 | 74 | 1016.5 |
| 20260903162124 | 75 | 173 | 3.0 | 12.0 | 0.00 | 0.40 | 0.31 | 75 | 1016.7 |
| 20260903161826 | 75 | 281 | 4.0 | 12.0 | 0.00 | 0.41 | 0.31 | 74 | 1016.7 |
| 20260903161522 | 75 | 225 | 4.0 | 12.0 | 0.00 | 0.41 | 0.31 | 75 | 1016.8 |
| 20260903161209 | 75 | 231 | 4.0 | 12.0 | 0.00 | 0.41 | 0.31 | 75 | 1016.8 |
| 20260903160857 | 75 | 232 | 5.0 | 12.0 | 0.00 | 0.41 | 0.31 | 76 | 1016.8 |
| 20260903160559 | 75 | 274 | 3.0 | 12.0 | 0.00 | 0.41 | 0.31 | 77 | 1016.9 |
| 20260903160250 | 74 | 351 | 3.0 | 11.0 | 0.00 | 0.41 | 0.31 | 76 | 1016.8 |
| 20260903155936 | 74 | 283 | 3.0 | 11.0 | 0.00 | 0.41 | 0.31 | 76 | 1016.9 |
| 20260903155627 | 74 | 249 | 2.0 | 10.0 | 0.00 | 0.41 | 0.31 | 77 | 1017.1 |
| 20260903155323 | 74 | 311 | 3.0 | 10.0 | 0.00 | 0.41 | 0.31 | 77 | 1017.2 |
| 20260903155016 | 74 | 280 | 3.0 | 10.0 | 0.00 | 0.42 | 0.31 | 77 | 1017.3 |
| 20260903154707 | 73 | 295 | 3.0 | 10.0 | 0.00 | 0.42 | 0.31 | 77 | 1017.3 |
| 20260903154408 | 73 | 0 | 2.0 | 8.0 | 0.00 | 0.42 | 0.31 | 77 | 1017.1 |
| 20260903154058 | 73 | 283 | 2.0 | 6.0 | 0.00 | 0.43 | 0.31 | 77 | 1017.1 |
| 20260903153755 | 73 | 258 | 1.0 | 6.0 | 0.00 | 0.45 | 0.31 | 78 | 1017.0 |
| 20260903153454 | 73 | 336 | 1.0 | 6.0 | 0.00 | 0.50 | 0.31 | 77 | 1017.0 |
| 20260903153150 | 73 | 171 | 1.0 | 6.0 | 0.00 | 0.58 | 0.31 | 78 | 1016.9 |
| 20260903152841 | 73 | 285 | 1.0 | 6.0 | 0.00 | 0.60 | 0.31 | 78 | 1017.1 |
| 20260903152536 | 73 | 291 | 0.0 | 5.0 | 0.00 | 0.62 | 0.31 | 78 | 1017.1 |
| 20260903152226 | 72 | 269 | 1.0 | 3.0 | 0.00 | 0.63 | 0.31 | 78 | 1017.3 |
| 20260903151450 | 72 | 288 | 0.0 | 3.0 | 0.00 | 0.63 | 0.31 | 78 | 1017.4 |
| 20260903151154 | 72 | 301 | 0.0 | 2.0 | 0.00 | 0.63 | 0.31 | 78 | 1017.1 |
| 20260903150851 | 72 | 306 | 0.0 | 6.0 | 0.00 | 0.63 | 0.31 | 78 | 1017.2 |
| 20260903150547 | 71 | 315 | 1.0 | 6.0 | 0.00 | 0.63 | 0.31 | 78 | 1017.3 |
| 20260903150242 | 71 | 269 | 1.0 | 11.0 | 0.00 | 0.63 | 0.31 | 78 | 1017.1 |
| 20260903145935 | 71 | 246 | 1.0 | 11.0 | 0.00 | 0.63 | 0.31 | 77 | 1017.1 |
| 20260903145623 | 71 | 221 | 2.0 | 11.0 | 0.00 | 0.63 | 0.31 | 77 | 1016.8 |
| 20260903145322 | 71 | 221 | 3.0 | 11.0 | 0.00 | 0.63 | 0.31 | 77 | 1016.7 |
| 20260903145023 | 71 | 170 | 3.0 | 11.0 | 0.00 | 0.63 | 0.31 | 77 | 1016.7 |
| 20260903144714 | 71 | 196 | 4.0 | 11.0 | 0.04 | 0.63 | 0.31 | 77 | 1016.7 |
| 20260903144402 | 71 | 237 | 3.0 | 11.0 | 0.05 | 0.63 | 0.31 | 77 | 1016.7 |